Weather past 2 weeks in King Edward Point, South Georgia/Sandwich Is.

Now
28 °F

Passing clouds.


Feels Like: 21 °F
Forecast: N/A
Wind: 7 mph from Southeast

Location: Mount Pleasant Airport

Current Time: Jul 6, 2015 at 9:00:22 PM

Latest Report: Jul 6, 2015 at 7:50 PM


Visibility: N/A

Pressure: 29.77 "Hg

Humidity: 80%

Dew point: 23 °F

Location of King Edward PointLocation

Historic Weather in King Edward Point — Graph

°F

King Edward Point temperature yesterday

Maximum temperature yesterday: 34 °F (at 11:50 AM)
Minimum temperature yesterday: 30 °F (at 3:50 AM)
Average temperature yesterday: 33 °F

Past Weeks' High & Low Weather Summary

 TemperatureHumidityPressure
High52 °F (Jun 25, 5:50 PM)100% (Jun 24, 1:50 PM)29.95 "Hg (Jun 24, 1:50 PM)
Low27 °F (Jul 1, 3:50 AM)44% (Jun 25, 5:50 PM)28.82 "Hg (Jun 28, 1:50 PM)
Average36 °F86%29.53 "Hg
* Reported Jun 21 6:50 PM — Jul 6 6:50 PM, King Edward Point, Weather by CustomWeather, © 2015

Note: Actual official high and low records may vary slightly from our data, if they occured in-between our weather recording intervals... More about our weather records

Advertising

King Edward Point weather history for previous 24 hours

 ConditionsComfort  
Time TempWeatherWind HumidityBarometerVisibility
6:50 PM
Mon, Jul 6
30 °FPartly cloudy.7 mph75%29.74 "HgN/A
5:50 PM30 °FPartly sunny.9 mph75%29.74 "HgN/A
4:50 PM30 °FScattered clouds.13 mph75%29.71 "HgN/A
3:50 PM30 °FPartly sunny.17 mph93%29.68 "HgN/A
2:50 PM30 °FSnow flurries. Partly sunny.15 mph100%29.68 "Hg1 mi
1:50 PM32 °FSnow flurries. Scattered clouds.20 mph100%29.65 "HgN/A
12:50 PM32 °FScattered clouds.22 mph100%29.62 "HgN/A
11:50 AM32 °FSnow flurries. Partly sunny.20 mph100%29.59 "Hg2 mi
10:50 AM32 °FBroken clouds.17 mph100%29.56 "HgN/A
9:50 AM34 °FPartly cloudy.20 mph81%29.53 "HgN/A
8:50 AM34 °FSnow flurries. Partly cloudy.23 mph75%29.50 "Hg4 mi
7:50 AM32 °FPassing clouds.26 mph87%29.47 "HgN/A
6:50 AM32 °FPartly cloudy.29 mph87%29.45 "HgN/A
5:50 AM32 °FLight rain. Passing clouds.29 mph93%29.39 "HgN/A
4:50 AM34 °FLight rain. Mostly cloudy.30 mph87%29.36 "HgN/A
3:50 AM34 °FPassing clouds.28 mph87%29.33 "HgN/A
2:50 AM34 °FPartly cloudy.33 mph87%29.33 "HgN/A
1:50 AM34 °FLight rain. Passing clouds.28 mph93%29.30 "HgN/A
12:50 AM34 °FLight rain. Mostly cloudy.24 mph93%29.30 "Hg4 mi
11:50 PM
Sun, Jul 5
34 °FRain. Mostly cloudy.23 mph93%29.27 "Hg2 mi
10:50 PM34 °FRain. Low clouds.24 mph93%29.27 "Hg2 mi
9:50 PM34 °FRain. Low clouds.25 mph93%29.27 "Hg2 mi
Weather by CustomWeather, © 2015

See weather overviewHow to use our weather pages